Location: Aldenham
(51.6667°N, 0.3500°W)
Time: 12:18:18
(UTC+00:00)

A-11 Canister half - Pass Details

Date: 17 February 2026
Orbit: 1513 x 1686 km, 47.2° (Epoch: 17 March)

Event Time Altitude Azimuth Distance (km) Brightness Sun altitude
Rises 05:30:00 0° 283° (WNW) 4,815 - -16.4°
Reaches altitude 10° 05:37:07 10° 248° (WSW) 3,770 - -15.3°
Maximum altitude 05:38:36 10° 239° (WSW) 3,722 - -15.1°
Exits shadow 05:39:03 10° 236° (SW) 3,722 10.5 -15.0°
Drops below altitude 10° 05:40:05 10° 229° (SW) 3,746 10.6 -14.8°
Sets 05:47:03 0° 194° (SSW) 4,679 11.4 -13.7°
